Location: Avemo-Reno
(42.0017°N, 44.3527°E)
Time: 12:17:00
(UTC+00:00)

Daily predictions for brighter satellites

Satellite Brightness Start Highest point End
(mag) Time Altitude Azimuth Time Altitude Azimuth Time Altitude Azimuth
NOSS 2-2 (E) 3.7 15:59:45 10° NNW 16:03:39 69° NE 16:09:07 10° SE
USA 234 3.4 15:57:16 10° NE 16:03:51 89° NW 16:10:25 10° SW
Cosmos 1937 Rocket 4.4 15:59:38 10° SSE 16:04:04 28° E 16:08:31 10° NE
NOAA 6 4.2 15:58:59 10° S 16:04:05 81° WSW 16:09:12 10° NNW
Cosmos 2227 4.4 15:58:49 10° NNW 16:04:36 86° WSW 16:10:21 10° SSE
Tiangong -1.1 16:07:03 10° W 16:10:01 37° SSW 16:12:56 10° SE
COSMOS 2428 4.3 16:08:54 10° SE 16:11:30 13° E 16:14:05 10° ENE
Meteor 1-15 Rocket 4.4 16:07:46 10° SSE 16:13:05 48° E 16:18:25 10° NNE
Meteor 1-31 Rocket 3.6 16:13:42 10° SE 16:16:42 27° ENE 16:19:44 10° NNE
CSL-04 Rocket 4.1 16:12:08 10° SE 16:17:21 46° ENE 16:22:39 10° N
Cosmos 2333 Rocket 3.0 16:16:33 10° SW 16:22:08 59° WNW 16:27:45 10° NNE
NOSS 3-2 (A) 4.2 16:15:20 10° NNW 16:22:44 66° NE 16:31:35 10° SE
Exosat Rocket 4.4 16:19:14 10° NNW 16:24:53 52° ENE 16:32:34 10° SE
COBE Rocket 4.1 16:22:49 10° N 16:27:46 83° WNW 16:32:49 10° SSW
Cosmos 1953 2.0 16:25:57 10° S 16:29:31 88° ESE 16:33:07 10° N
Cosmos 2181 Rocket 4.0 16:23:23 10° N 16:29:32 89° W 16:35:41 10° S
Cosmos 1295 Rocket 4.5 16:26:28 10° S 16:32:38 85° E 16:38:54 10° N
Meteor 2-5 Rocket 3.7 16:30:06 10° N 16:35:37 67° ENE 16:41:08 10° SSE
Nadezhda 3 Rocket 4.1 16:30:28 10° N 16:36:32 56° E 16:42:32 10° SSE
Geosat 4.1 16:32:27 10° NE 16:37:21 53° ESE 16:42:14 10° S
Cosmos 1470 Rocket 3.5 16:37:04 10° S 16:41:26 70° E 16:45:47 10° NNE
Cosmos 1703 Rocket 4.1 16:37:34 10° N 16:41:36 37° ENE 16:44:36 16° SE
ERS-1 Rocket 3.6 16:38:04 14° SE 16:41:55 36° ENE 16:46:28 10° N
SJ-6B 3.9 16:39:46 10° S 16:43:16 41° W 16:46:46 10° NNW
ARIANE 6 FM1 Upper Stage 3.3 16:41:52 10° SW 16:45:58 59° NW 16:49:59 10° NNE
ATLAS 3B R/B 4.1 16:39:10 10° WSW 16:46:30 48° NW 16:54:06 10° NNE
Iridium 82 3.9 16:43:46 10° N 16:46:47 80° E 16:49:44 10° S
Cosmos 1943 Rocket 3.9 16:43:26 10° N 16:47:12 18° NE 16:49:58 13° E
Cosmos 2154 Rocket 4.0 16:40:58 10° S 16:47:15 85° E 16:53:38 10° N
Cosmos 1933 Rocket 4.1 16:45:00 10° SSE 16:48:57 35° E 16:52:57 10° NNE
Lacrosse 5 rocket 0.5 16:47:06 10° SW 16:50:18 63° SE 16:53:26 10° NE
Okean 1-7 3.9 16:48:27 10° NNW 16:52:25 48° W 16:56:21 10° SSW
Cosmos 1844 Rocket 4.4 16:56:18 10° NW 17:01:05 30° WSW 17:05:51 10° SSW
Cosmos 2360 Rocket 3.4 16:56:11 10° SW 17:01:34 46° WNW 17:06:59 10° NNE
Cosmos 1441 Rocket 4.3 16:59:52 10° NNW 17:03:01 37° W 17:06:08 10° SSW
Meteor 2-19 Rocket 4.5 16:57:19 10° N 17:03:26 63° E 17:08:30 15° SSE
Meteor 1-16 Rocket 4.3 16:59:23 10° S 17:05:18 86° E 17:11:15 10° N
Okean-O 3.8 17:05:56 24° E 17:06:46 25° ENE 17:10:21 10° NNE
CBERS 1 LM4 rocket 4.3 17:03:44 21° SSE 17:06:48 62° ENE 17:11:27 10° N
Helios 1A Rocket 2.8 17:04:11 10° N 17:07:23 60° WNW 17:10:33 10° SSW
Cosmos 2228 Rocket 4.0 17:03:04 10° NNW 17:07:25 50° W 17:11:40 10° SSW
Cosmos 2322 Rocket 3.8 17:04:23 10° SW 17:09:32 37° WNW 17:14:43 10° N
BREEZE-M DEB (TANK) 3.2 17:08:36 10° WNW 17:11:19 73° SSW 17:15:16 25° ESE
Feng Yun 1-1 Rocket 4.2 17:08:58 14° SSE 17:13:54 87° ENE 17:19:27 10° NNW
ADEOS 3.6 17:11:21 24° SE 17:14:24 63° ENE 17:19:34 10° N
BlueWalker 3 4.2 17:15:12 10° W 17:17:32 17° SW 17:19:29 12° SSW
MOS 1 4.2 17:13:20 18° SSE 17:17:38 82° ENE 17:23:18 10° NNW
Cosmos 1869 Rocket 3.6 17:16:58 30° SSE 17:18:51 54° E 17:23:08 10° NNE
Terra 1.7 17:17:03 28° SSE 17:19:28 72° ENE 17:24:10 10° N
Cosmos 2341 Rocket 4.1 17:17:11 18° SSE 17:21:40 53° E 17:27:44 10° NNE
Cosmos 2237 Rocket 3.8 17:24:08 17° ENE 17:24:08 17° ENE 17:25:59 10° NE
Atlas Centaur 2 4.4 17:18:58 10° SW 17:22:33 16° SSW 17:25:12 13° S
Cosmos 2322 3.6 17:19:36 10° S 17:25:13 65° ESE 17:30:54 10° NNE
CZ-4 R/B 2.4 17:25:09 14° SSW 17:28:10 41° W 17:31:46 10° NNW
IRS-1A Rocket 4.2 17:26:31 32° SE 17:29:03 66° ENE 17:34:39 10° N
Okean O Rocket 1.9 17:29:29 43° E 17:29:58 45° ENE 17:34:08 10° N
ASTEX 1 4.4 17:32:11 29° ENE 17:32:11 29° ENE 17:36:12 10° NNE
SL-08 R/B 3.2 17:27:26 10° NNE 17:32:21 80° ESE 17:36:20 16° S
Meteor 1-21 Rocket 4.5 17:29:29 10° N 17:34:56 50° ENE 17:36:17 41° ESE
Cosmos 2219 Rocket 3.6 17:32:59 10° SW 17:38:09 38° WNW 17:43:21 10° N
Cosmos 1680 Rocket 3.4 17:35:17 10° NNW 17:40:31 86° ENE 17:42:08 46° SSE
CZ-4B R/B 4.5 17:42:10 20° NE 17:42:10 20° NE 17:43:46 10° NNE
SPOT 3 Rocket 4.4 17:41:05 32° ENE 17:41:20 32° ENE 17:45:54 10° N
SL-8 Rocket 3.9 17:44:34 17° S 17:49:31 89° E 17:55:50 10° N
BREEZE-M DEB (TANK) 4.4 17:48:23 10° NW 17:50:01 19° N 17:50:01 19° N
NOSS 0 Rocket 3.8 17:49:30 21° S 17:53:43 64° ESE 17:59:53 10° NNE
NOSS 2-3 (E) 4.3 17:48:23 10° NW 17:53:44 82° NE 17:55:36 50° SE
SL-24 R/B - RUBIN 2 3.4 17:49:47 10° NNW 17:54:15 84° NE 17:54:30 79° ESE
COSMOS 2428 2.7 17:49:09 10° SSW 17:54:53 84° WNW 18:00:39 10° NNE
CZ-4B R/B 3.8 17:53:16 25° SSW 17:56:21 54° W 18:01:50 10° NNW
NOSS 2-3 (C) 4.4 17:51:37 10° NNW 17:56:53 68° NE 17:58:25 51° ESE
Cosmos 2112 Rocket 3.9 17:52:49 10° NNW 17:58:03 81° WSW 17:59:00 60° S
Cosmos 1727 Rocket 4.4 17:52:41 10° N 17:58:41 42° ENE 17:59:04 42° E
Cosmos 2366 rocket 3.9 17:55:28 23° S 17:59:28 85° W 18:05:40 10° N
Cosmos 1241 Rocket 4.4 17:53:40 10° NNW 17:59:56 72° ENE 18:01:17 55° ESE
USA 245 4.4 18:04:11 36° NNE 18:04:11 36° NNE 18:07:12 10° N
NOSS 3-2 (C) 4.2 17:57:44 10° NW 18:05:20 75° WSW 18:08:57 40° SSE
Cosmos 2278 Rocket 2.4 18:00:10 10° NNW 18:05:43 52° ENE 18:05:59 52° ENE
Ariane Rocket 3.7 18:06:44 39° NE 18:06:44 39° NE 18:10:49 10° N
USA 32 4.0 18:13:32 65° SSW 18:14:15 79° W 18:19:31 10° N
Spot 2 Rocket 3.7 18:13:51 57° SW 18:14:32 64° WSW 18:19:32 10° NNW
NOSS 2-3 (D) 4.4 18:10:43 10° NW 18:16:07 75° SW 18:17:13 61° S
Cosmos 2218 Rocket 4.4 18:21:24 26° SSW 18:24:50 59° W 18:30:54 10° N
Lacrosse 5 rocket 3.7 18:25:07 10° WNW 18:27:12 16° NNW 18:27:17 16° NNW
Meteor 2-15 Rocket 4.3 18:29:49 72° SSW 18:30:29 84° W 18:36:36 10° N
Cosmos 1943 Rocket 2.1 18:25:56 10° NNW 18:31:28 80° W 18:31:28 80° W
USA 59 Rocket 2.3 18:31:08 10° N 18:31:46 13° N 18:31:46 13° N
NOSS 3-4 (A) 4.0 18:35:57 38° NE 18:35:57 38° NE 18:39:27 10° NE
NOSS 3-4 (C) 4.1 18:36:30 38° NE 18:36:30 38° NE 18:39:59 10° NE
Meteor 1-11 4.2 18:29:04 10° NNW 18:34:17 78° NW 18:34:17 78° NW
IRS-1C Rocket 4.4 18:40:00 64° N 18:40:00 64° N 18:44:27 10° NNW
SeaSat 1 3.9 18:40:17 28° NNE 18:40:17 28° NNE 18:43:28 10° N
Cosmos 1821 Rocket 4.3 18:37:50 48° SW 18:39:25 64° W 18:45:41 10° N
CZ-4B R/B 3.9 18:40:30 55° NNW 18:40:30 55° NNW 18:44:19 10° NNW
Cosmos 1733 Rocket 4.4 18:41:28 38° NNW 18:41:28 38° NNW 18:44:32 10° N
Okean-O 4.2 18:43:16 29° W 18:43:16 29° W 18:46:46 10° NW
Cosmos 2239 Rocket 4.4 18:44:53 77° NNE 18:44:53 77° NNE 18:50:38 10° N
Timation 2 Rocket 4.0 18:45:19 10° NNW 18:51:22 79° WNW 18:51:22 79° WNW
Cosmos 2237 Rocket 2.8 19:05:50 53° NW 19:05:50 53° NW 19:10:57 10° NNE
Cosmos 1980 4.4 19:06:16 50° WNW 19:06:16 50° WNW 19:11:42 10° NNE
Okean O Rocket 4.0 19:06:43 16° W 19:06:43 16° W 19:09:07 10° NW
Cosmos 2369 Rocket 3.7 19:36:04 10° NNW 19:39:12 30° N 19:39:12 30° N
USA 238 DEB 4.4 19:38:31 10° NW 19:44:50 54° W 19:44:50 54° W
USA 238 4.4 19:38:41 10° NW 19:45:00 54° W 19:45:00 54° W
Cosmos 2278 Rocket 4.2 19:45:04 10° NW 19:47:49 20° WNW 19:47:49 20° WNW
SL-16 R/B 4.0 20:16:16 27° N 20:16:16 27° N 20:18:54 10° NNE
NOSS 3-1 (C) 4.5 20:36:00 10° NNW 20:41:26 56° N 20:41:26 56° N
COSMOS 2455 4.5 20:58:52 10° NNW 21:02:10 30° N 21:02:10 30° N
NOSS 3-1 (A) 4.5 21:27:02 10° NNW 21:32:38 57° N 21:32:38 57° N
ACS3 Solar Sail 3.0 21:53:12 10° NNE 21:56:52 35° NE 21:56:52 35° NE
USA 267 3.7 22:10:27 10° NE 22:15:28 56° NE 22:15:28 56° NE
ATLAS 2AS CENTAUR R/B 3.2 22:32:27 53° ENE 22:32:27 53° ENE 22:37:51 10° NE
IDEFIX/ARIANE 42P 4.0 22:34:18 10° NNE 22:37:18 35° NNE 22:37:18 35° NNE
USA 281 3.7 22:41:15 53° NNW 22:41:15 53° NNW 22:46:05 10° NNW
Resurs 1-4 Rocket 4.1 22:38:22 10° NE 22:42:07 20° E 22:42:07 20° E
Cosmos 1833 Rocket 3.7 22:44:45 42° NNE 22:44:45 42° NNE 22:48:25 10° NNE
USA 234 3.4 22:45:43 10° ESE 22:52:11 67° NE 22:58:41 10° NW
Nadezhda 4 Rocket 4.5 22:49:12 10° N 22:53:47 52° NNW 22:53:47 52° NNW
Cosmos 2034 Rocket 4.2 22:58:19 68° NNE 22:58:19 68° NNE 23:03:51 10° N
FENGYUN 3A 4.3 22:57:28 10° NNE 23:01:32 52° NNE 23:01:32 52° NNE
NPP 4.2 23:10:08 10° N 23:14:15 53° N 23:14:15 53° N
CZ-2D R/B 3.0 23:17:54 10° NNE 23:22:49 40° E 23:23:08 40° ESE
Cosmos 1697 Rocket 3.8 23:21:52 10° NNW 23:24:53 32° NW 23:24:53 32° NW
Cosmos 1092 Rocket 3.9 23:21:46 10° N 23:27:58 82° E 23:28:16 79° SE
Cosmos 2026 Rocket 3.9 23:23:00 10° N 23:29:02 82° WNW 23:29:02 82° WNW
BREEZE-M DEB (TANK) 4.3 23:31:11 25° NNE 23:31:11 25° NNE 23:35:19 10° ENE
Cosmos 1867 3.6 23:37:22 77° NNE 23:37:22 77° NNE 23:42:26 10° NNE
Meteor 1-26 Rocket 4.1 23:39:28 74° ESE 23:39:36 74° E 23:44:59 10° NNE
ACS3 Solar Sail 3.1 23:36:16 10° NNW 23:40:25 25° NW 23:40:25 25° NW
Cosmos 1302 Rocket 4.2 23:43:46 62° NNW 23:43:46 62° NNW 23:48:20 10° NNE
Cosmos 1980 Rocket 2.3 23:37:27 10° NNW 23:43:10 73° ENE 23:45:54 32° SE
BREEZE-M DEB (TANK) 4.2 23:55:32 41° WNW 23:56:28 45° NW 23:59:34 10° NE
